Hourly Data Report for November 04, 2016

All times are specified in Local Standard Time (LST). Add 1 hour to adjust for Daylight Saving Time where and when it is observed.

VICTORIA UNIVERSITY CS
BRITISH COLUMBIA

48°27'25.200" N
123°18'16.600" W
60.10 m
1018598
71783
WYJ

Download Data

Hourly Data (November 2016)
Hourly Data Report for November 4, 2016
TIME Temp Definition
°C
Dew Point Definition
°C
Rel Hum Definition
%
Wind Dir Definition
10's deg

Wind Spd Definition
km/h
Visibility Definition
km
Stn Press Definition
kPa
Hmdx Definition


Wind Chill Definition


Weather Definition


00:00 9.7 8.3 91 34 11   101.07     LegendNANA
01:00 9.6 8.1 91 33 14   101.04     LegendNANA
02:00 9.3 7.5 88 33 10   100.98     LegendNANA
03:00 9.2 7.4 88 34 13   100.88     LegendNANA
04:00 9.2 7.2 87 36 10   100.85     LegendNANA
05:00 8.6 6.9 89 34 10   100.82     LegendNANA
06:00 8.7 6.9 89 35 8   100.81     LegendNANA
07:00 8.8 6.8 87 35 10   100.81     LegendNANA
08:00 9.0 7.3 89 35 12   100.81     LegendNANA
09:00 9.2 6.9 85 34 8   100.83     LegendNANA
10:00 9.6 6.5 81 35 10   100.83     LegendNANA
11:00 9.9 6.8 81 1 9   100.81     LegendNANA
12:00 10.0 6.7 80 36 9   100.72     LegendNANA
13:00 10.1 6.9 80 32 9   100.69     LegendNANA
14:00 11.1 6.5 74 35 8   100.60     LegendNANA
15:00 11.1 6.8 75 35 6   100.55     LegendNANA
16:00 11.1 7.0 75 29 7   100.56     LegendNANA
17:00 11.3 7.4 77 6 4   100.50     LegendNANA
18:00 11.2 7.6 79 2 4   100.38     LegendNANA
19:00 11.0 7.9 81 33 5   100.50     LegendNANA
20:00 11.4 8.3 81 31 8   100.45     LegendNANA
21:00 12.1 8.8 81 11 3   100.35     LegendNANA
22:00 13.5 8.8 74 20 5   100.38     LegendNANA
23:00 12.2 9.4 83 35 4   100.31     LegendNANA

Notes on Data Quality.

Legend

  • E = Estimated
  • M = Missing
  • NA = Not Available
Date modified: